This is the latest recevied weather packets stored in our database for station/object WB9TLH-11. If no packets are shown the sender has not sent any weather packets the latest 10 day(s).
| Time | Temp. | Humidity | Pressure | Rain* | Wind** | Luminosity | Snow |
|---|---|---|---|---|---|---|---|
| 1777930254 | 23.33° C | 42% | 1005.7 hPa | 0 mm | - | - | - |
| 1777929954 | 23.33° C | 41% | 1005.8 hPa | 0 mm | - | - | - |
| 1777929654 | 23.33° C | 40% | 1005.9 hPa | 0 mm | - | - | - |
| 1777929354 | 23.33° C | 40% | 1005.8 hPa | 0 mm | - | - | - |
| 1777929054 | 23.89° C | 41% | 1005.9 hPa | 0 mm | - | - | - |
| 1777928754 | 23.89° C | 40% | 1005.9 hPa | 0 mm | - | - | - |
| 1777928454 | 23.89° C | 37% | 1005.9 hPa | 0 mm | - | - | - |
| 1777928154 | 23.89° C | 37% | 1006 hPa | 0 mm | - | - | - |
| 1777927854 | 23.89° C | 37% | 1006.2 hPa | 0 mm | - | - | - |
| 1777927554 | 23.89° C | 36% | 1006.6 hPa | 0 mm | - | - | - |
| 1777927254 | 23.89° C | 34% | 1006.7 hPa | 0 mm | - | - | - |
| 1777926954 | 23.89° C | 33% | 1006.9 hPa | 0 mm | - | - | - |
| 1777926654 | 23.89° C | 35% | 1006.6 hPa | 0 mm | - | - | - |
| 1777926354 | 23.89° C | 36% | 1006.7 hPa | 0 mm | - | - | - |
| 1777926054 | 24.44° C | 36% | 1006.8 hPa | 0 mm | - | - | - |
| 1777925754 | 24.44° C | 37% | 1006.8 hPa | 0 mm | - | - | - |
| 1777925454 | 25° C | 37% | 1006.6 hPa | 0 mm | - | - | - |
| 1777925154 | 25° C | 36% | 1006.7 hPa | 0 mm | - | - | - |
| 1777924854 | 25.56° C | 39% | 1006.5 hPa | 0 mm | - | - | - |
| 1777924554 | 25.56° C | 36% | 1006.5 hPa | 0 mm | - | - | - |
| 1777924254 | 25.56° C | 37% | 1006.5 hPa | 0 mm | - | - | - |
| 1777923954 | 25° C | 37% | 1006.6 hPa | 0 mm | - | - | - |
| 1777923654 | 25° C | 38% | 1006.6 hPa | 0 mm | - | - | - |
| 1777923354 | 25° C | 39% | 1006.6 hPa | 0 mm | - | - | - |
| 1777923054 | 25° C | 39% | 1006.7 hPa | 0 mm | - | - | - |
* Rain latest hour (hover to see other rain measurements)
** Current wind speed in m/s (hover to see current wind gust speed)